Вернуться в каталог

CZ-3C DEB

АктивенHEO
NORAD 39344·DEBRIS·🇨🇳 China

Запущен Oct 31, 2010 с Xichang Satellite Launch Center

Loading…

Ближайшие Пролёты (ближайшие 24 часа)

TLE

УстаревшееSource: Space-Track

Эпоха: Jan 21, 2026, 12:07 UTC

1 39344U 10057J   26021.50522111  .00002227  00000-0  25859-2 0  9998
2 39344  20.7848  30.4141 6706884 203.9232  99.2819  2.96110811 18609

Отслеживайте CZ-3C DEB в реальном времени с AllMySat

Download on the App Store